Home > Weather > Samara > Past weeks

Flag for Russia Weather for the Past 2 Weeks in Samara, Russia

Now
27 °F

Sunny.


Feels Like: 18 °F
Forecast: 16 / 24 °F
Wind: 8 mph from Southwest

Location: Samara

Current Time: Feb 9, 2016 at 6:56:28 PM

Latest Report: Feb 9, 2016 at 6:00 PM


Visibility: 10 mi

Pressure: 30.33 "Hg

Humidity: 69%

Dew point: 18 °F

Location of SamaraLocation

Historic Weather in Samara — Graph

°F

Samara Temperature Yesterday

Maximum temperature yesterday: 32 °F (at 10:00 PM)
Minimum temperature yesterday: 18 °F (at 7:00 AM)
Average temperature yesterday: 25 °F

High & Low Weather Summary for the Past Weeks

 TemperatureHumidityPressure
High36 °F (Feb 1, 11:30 AM)100% (Feb 1, 9:00 PM)30.33 "Hg (Feb 1, 9:00 PM)
Low-17 °F (Jan 27, 8:00 AM)48% (Feb 9, 3:30 PM)29.45 "Hg (Feb 4, 12:30 AM)
Average19 °F87%29.97 "Hg
* Reported Jan 25 5:00 PM — Feb 9 5:00 PM, Samara, Weather by CustomWeather, © 2016

Note: Actual official high and low records may vary slightly from our data, if they occured in-between our weather recording intervals... More about our weather records

Advertising

Samara Weather History for the Previous 24 Hours

 ConditionsComfort  
Time TempWeatherWind HumidityBarometerVisibility
5:00 PM
Tue, Feb 9
28 °FSunny.8 mph69%30.33 "Hg10 mi
4:30 PM30 °FSunny.10 mph64%30.33 "Hg10 mi
4:00 PM30 °FSunny.13 mph64%30.33 "Hg10 mi
3:30 PM34 °FSunny.13 mph48%30.33 "Hg10 mi
2:30 PM32 °FSunny.10 mph55%30.33 "Hg10 mi
2:00 PM32 °FSunny.13 mph55%30.30 "Hg10 mi
1:30 PM32 °FSunny.13 mph55%30.33 "Hg10 mi
1:00 PM30 °FSunny.13 mph59%30.33 "Hg10 mi
12:00 PM30 °FSunny.10 mph59%30.33 "Hg10 mi
11:30 AM25 °FSunny.10 mph74%30.33 "Hg10 mi
11:00 AM25 °FSunny.10 mph69%30.30 "Hg10 mi
10:30 AM25 °FSunny.8 mph69%30.30 "Hg10 mi
10:00 AM21 °FSunny.6 mph74%30.30 "Hg10 mi
9:30 AM18 °FSunny.8 mph86%30.30 "Hg10 mi
9:00 AM18 °FClear.10 mph86%30.30 "Hg10 mi
8:30 AM18 °FClear.8 mph79%30.30 "Hg10 mi
7:30 AM21 °FClear.6 mph74%30.27 "Hg10 mi
7:00 AM25 °FClear.8 mph74%30.27 "Hg10 mi
6:30 AM27 °FClear.10 mph69%30.27 "Hg10 mi
6:00 AM27 °FClear.10 mph69%30.24 "Hg10 mi
5:30 AM27 °FClear.13 mph74%30.24 "Hg10 mi
5:00 AM28 °FClear.10 mph69%30.24 "Hg10 mi
4:30 AM28 °FClear.10 mph69%30.24 "Hg10 mi
4:00 AM30 °FClear.10 mph64%30.24 "Hg10 mi
3:30 AM30 °FClear.10 mph64%30.24 "Hg10 mi
3:00 AM30 °FClear.8 mph64%30.24 "Hg10 mi
2:00 AM25 °FClear.8 mph80%30.24 "Hg10 mi
1:30 AM27 °FClear.6 mph80%30.24 "Hg10 mi
1:00 AM30 °FClear.8 mph69%30.24 "Hg10 mi
12:30 AM30 °FClear.8 mph69%30.24 "Hg10 mi
12:00 AM32 °FClear.8 mph64%30.24 "Hg10 mi
11:30 PM
Mon, Feb 8
32 °FClear.13 mph64%30.21 "Hg10 mi
11:00 PM32 °FClear.10 mph64%30.21 "Hg10 mi
10:30 PM32 °FClear.10 mph64%30.21 "Hg10 mi
10:00 PM32 °FClear.10 mph64%30.21 "Hg10 mi
9:30 PM30 °FClear.10 mph69%30.21 "Hg10 mi
9:00 PM28 °FClear.8 mph80%30.21 "Hg10 mi
8:30 PM28 °FPassing clouds.8 mph80%30.21 "HgN/A
8:00 PM28 °FMostly cloudy.6 mph80%30.21 "HgN/A
7:30 PM27 °FMostly cloudy.6 mph86%30.21 "HgN/A
7:00 PM27 °FMostly cloudy.3 mph86%30.21 "HgN/A
6:30 PM27 °FMore clouds than sun.8 mph86%30.21 "HgN/A
6:00 PM27 °FMostly cloudy.8 mph86%30.21 "HgN/A
Weather by CustomWeather, © 2016

See weather overviewHow to use our weather pages